Wind_Speed
7 7 7 6 6 4 2 2 3 4 4 5 6 6 7 8 10 10 12 13 15 16 16 16 15 14 13 12 11 9 9 9 10 12 14 13 11 10 9 8 7 5 4 4 4 6 6 6 6 5 6 5 6 3 4 7 7 4 4 1 2 3 9 10 12 10 11 16 15 14 14 13 13 12 12 12 12 11 12 12 11 12 13 13 11 9 8 9
7 7 7 7 6 5 5 3 1 2 4 4 5 5 6 6 7 8 10 10 12 13 14 15 15 15 14 13 12 11 10 9 9 11 13 13 12 12 11 10 9 7 6 5 4 6 6 4 3 4 6 3 3 4 5 5 4 4 4 2 3 7 11 10 10 9 11 15 15 14 14 12 12 12 13 12 11 12 12 12 12 12 12 11 9 9 8 8
7 8 7 7 7 6 5 4 2 1 2 3 4 5 5 5 6 7 8 9 10 10 11 13 14 15 14 14 13 12 10 9 9 11 11 12 13 13 13 11 10 9 8 7 5 5 5 3 2 2 3 2 3 5 5 6 5 5 8 5 3 7 11 10 11 11 12 13 14 14 13 13 13 12 12 12 13 13 12 12 12 10 10 10 8 8 7 7
7 8 8 7 7 6 6 5 3 2 1 2 3 4 5 5 5 5 5 7 8 9 10 10 11 13 13 14 13 12 10 7 10 11 10 11 13 14 14 13 12 10 9 8 6 4 5 5 3 2 1 5 5 5 5 7 6 5 8 6 1 6 9 10 12 13 13 12 13 13 12 13 13 12 11 12 12 12 11 11 11 11 10 9 8 8 8 7
7 7 7 7 7 6 6 5 4 3 2 1 2 3 4 4 4 4 4 5 6 7 8 8 10 10 12 13 12 12 7 4 12 12 9 11 12 13 14 13 13 12 11 8 6 5 5 6 3 1 2 5 6 4 4 7 5 4 5 5 1 5 8 11 12 13 14 13 13 13 11 11 13 13 11 11 11 10 11 10 11 12 10 9 8 8 8 8
7 7 7 7 6 6 6 5 5 4 3 2 1 2 3 4 4 4 4 3 4 5 6 7 8 8 9 10 11 12 8 7 16 13 10 12 11 12 13 13 14 13 11 9 7 6 6 5 2 1 4 5 6 5 6 7 5 5 4 3 3 4 8 11 13 13 15 14 14 14 10 10 12 12 10 11 13 12 12 11 13 13 11 11 9 8 8 8
7 6 6 5 5 5 5 5 4 4 4 3 2 1 2 3 3 4 4 3 3 2 3 4 5 6 6 7 10 12 10 12 18 12 10 12 10 11 12 13 14 14 12 11 10 8 7 4 2 4 6 7 6 5 8 7 4 4 3 3 4 3 7 11 14 14 14 14 14 14 10 10 11 10 9 12 14 14 13 13 14 14 13 12 9 9 9 8
7 6 6 5 4 4 4 4 4 4 4 3 2 2 1 2 2 3 3 3 2 1 1 2 2 4 3 5 7 8 8 14 16 12 11 12 11 12 11 12 14 14 14 12 11 10 7 5 5 5 6 7 6 5 8 7 4 5 4 5 6 3 6 9 15 16 15 16 16 15 11 10 11 10 9 11 13 13 14 14 15 14 14 12 11 11 9 9
8 7 6 5 4 4 3 3 3 3 3 4 3 3 2 1 2 3 3 3 3 1 1 0 1 2 2 6 9 8 10 16 15 13 12 12 13 12 11 12 13 14 15 13 14 12 7 4 4 7 8 7 6 7 7 6 7 9 6 6 6 6 7 8 15 18 17 17 17 16 12 11 12 11 9 12 13 13 15 15 14 14 14 13 12 10 9 10
10 9 7 6 5 4 4 3 3 2 2 3 3 3 3 2 1 2 3 3 3 2 1 1 1 2 4 9 11 4 14 13 12 14 12 12 12 12 12 12 13 14 15 14 15 14 10 8 8 9 8 6 6 10 7 4 8 10 7 6 7 8 9 9 14 19 18 17 17 17 14 13 12 11 10 13 14 13 16 16 15 14 14 14 12 10 10 11
11 10 8 6 5 4 4 3 3 2 2 2 3 3 3 3 2 1 2 2 3 2 1 0 2 3 7 12 9 6 15 10 10 12 11 12 12 12 13 13 13 13 14 15 15 16 16 15 15 9 4 6 7 10 9 5 7 9 6 3 5 7 8 9 13 19 19 18 18 17 15 14 11 9 10 14 15 15 16 17 15 15 14 14 12 10 10 11
12 10 8 6 5 4 3 2 3 2 2 2 3 3 4 4 3 2 1 1 2 2 1 1 2 3 7 10 6 8 11 9 10 10 10 11 11 11 12 13 14 14 15 16 16 19 19 17 14 8 5 9 7 9 10 8 7 6 5 4 7 8 7 10 13 20 21 20 19 17 15 15 12 8 11 15 15 16 17 17 15 14 14 14 12 10 9 10
12 9 8 7 5 4 3 3 2 2 2 2 2 3 3 3 3 3 2 1 0 0 1 1 2 3 6 5 6 7 7 8 9 9 9 10 9 10 11 12 13 14 16 18 19 21 21 16 13 10 9 8 6 11 12 9 7 4 3 6 7 6 5 11 15 20 23 19 19 18 14 16 14 12 14 16 15 16 17 17 16 14 13 13 12 10 9 8
11 9 8 7 6 5 4 4 4 3 2 2 2 3 3 3 3 3 4 3 3 2 1 2 3 3 5 1 4 4 4 6 7 8 9 8 8 8 9 11 12 13 15 19 21 20 20 18 15 12 9 8 9 12 10 8 9 6 4 5 6 5 3 11 14 20 24 19 19 18 12 15 16 14 17 17 16 15 16 17 16 14 13 13 12 11 9 8
11 9 8 6 6 6 6 6 6 5 4 4 3 3 3 3 3 4 5 5 6 5 4 5 5 6 5 3 5 3 3 3 5 7 8 8 7 6 8 9 10 12 13 17 19 18 20 19 15 10 8 12 13 11 10 10 11 9 5 4 5 5 5 12 14 20 25 20 20 17 11 15 17 16 17 18 17 15 15 16 16 15 13 12 11 11 10 8
10 9 7 7 7 8 9 8 8 7 7 6 6 5 5 4 4 5 5 7 9 8 8 8 8 12 9 3 6 5 3 2 4 5 6 8 7 5 7 7 8 11 12 15 18 18 20 18 14 11 9 13 13 10 12 12 12 10 6 6 5 4 7 13 15 21 23 20 21 17 11 14 17 17 17 17 18 16 16 16 15 14 14 12 11 11 11 10
10 9 7 8 9 10 11 10 10 10 10 9 9 8 7 6 5 5 7 8 11 11 10 11 11 11 5 3 6 5 2 2 3 3 5 8 8 6 5 5 6 8 11 13 17 18 19 17 13 13 13 13 12 11 12 11 10 10 7 7 5 6 8 13 17 23 24 21 22 17 12 15 16 18 18 18 18 17 16 16 15 15 14 13 12 11 12 11
8 8 7 8 10 11 12 11 11 11 11 10 10 11 11 11 8 6 6 9 13 14 9 10 12 8 1 1 3 1 4 4 3 1 3 5 8 8 6 4 3 6 9 11 14 15 16 15 12 13 14 12 12 12 11 9 9 8 5 5 4 5 8 11 16 24 26 22 20 17 14 17 19 18 18 18 17 17 15 15 16 15 14 14 13 12 12 11
7 7 7 9 10 11 11 11 11 10 10 10 10 11 12 13 13 7 5 8 10 10 4 5 7 4 2 2 2 3 3 3 2 1 1 2 5 7 6 4 4 5 7 8 12 12 13 13 12 14 15 13 12 11 10 11 10 8 6 6 4 4 6 10 16 22 25 21 19 17 12 13 16 16 16 17 16 16 16 16 16 15 15 14 13 13 12 12
6 6 7 9 10 11 11 10 10 10 10 10 9 9 10 10 9 7 5 6 4 2 3 2 3 3 2 2 1 1 4 6 4 1 0 2 3 4 5 4 4 5 8 9 10 10 12 13 15 16 13 11 11 10 10 11 9 9 8 5 3 3 6 11 15 20 23 20 17 17 12 10 13 16 18 18 16 16 16 16 16 16 16 14 14 14 13 13
4 5 7 8 9 9 9 9 9 9 9 8 7 8 9 6 4 4 7 6 5 4 5 2 5 5 4 3 1 1 2 5 2 1 1 3 4 5 5 5 7 8 10 11 8 9 12 14 16 16 13 9 8 9 8 8 8 8 8 5 2 1 5 9 12 17 23 20 17 18 14 12 13 14 17 17 15 15 15 16 17 16 16 15 15 15 14 14
3 4 6 7 8 8 8 8 8 8 8 7 7 9 8 7 9 10 12 7 5 5 5 3 6 2 0 2 2 7 6 1 3 2 1 4 6 6 5 6 9 10 9 11 10 10 13 16 17 15 12 10 9 9 8 8 8 7 6 5 2 3 5 6 8 13 21 20 17 19 15 14 17 14 13 14 14 13 14 15 17 17 16 15 16 16 15 15
2 3 5 6 7 6 6 6 6 7 7 6 8 8 5 6 10 11 14 9 3 7 6 4 5 1 3 5 4 10 6 3 4 4 2 7 7 4 5 7 10 10 9 12 13 12 12 13 15 13 9 10 11 10 9 10 8 6 6 5 4 3 3 4 6 9 19 16 10 15 15 15 18 16 15 16 15 14 14 15 17 17 17 16 16 17 17 17
2 3 4 5 5 4 4 4 5 5 6 7 8 7 4 4 8 9 12 8 2 4 4 3 6 3 1 2 4 9 2 3 5 7 4 8 6 4 4 7 9 9 9 11 14 15 12 7 8 10 7 10 12 11 10 11 8 6 5 5 6 4 2 2 5 8 14 12 9 13 14 16 20 18 16 17 15 15 16 16 17 17 17 16 16 18 18 18
3 4 4 4 4 3 3 3 4 4 5 6 6 6 4 4 6 7 8 6 6 4 3 3 5 2 2 5 8 8 2 2 4 6 5 5 6 5 3 7 8 8 9 11 13 16 15 9 9 9 8 10 13 12 11 10 9 6 4 4 6 8 6 1 6 9 10 10 12 14 12 14 22 22 19 17 15 16 18 18 18 18 18 18 17 18 19 19
4 5 5 4 3 3 2 3 2 3 5 4 4 4 4 5 5 4 2 4 7 5 3 3 3 1 2 5 7 5 4 6 2 2 3 5 7 5 4 6 7 6 6 8 11 15 14 7 7 12 11 12 13 14 13 10 9 8 6 5 6 7 6 1 7 9 7 8 11 15 13 8 17 24 22 18 16 17 18 19 20 19 19 20 19 19 20 21
5 6 7 6 4 4 2 2 2 4 3 2 2 1 2 3 2 0 5 7 5 6 2 3 3 1 2 4 3 2 2 6 4 3 2 3 6 3 3 4 6 7 4 6 9 13 14 7 5 9 11 13 14 14 13 10 10 8 7 8 6 5 4 3 7 8 5 6 7 13 15 7 11 21 21 20 19 18 19 20 21 21 22 21 20 20 21 21
6 7 8 7 6 5 3 3 2 3 2 2 0 1 0 2 4 4 7 4 7 6 2 2 1 2 4 3 2 2 2 4 5 3 2 2 5 5 3 2 5 5 5 10 9 6 11 14 10 9 12 14 14 14 10 8 9 8 6 9 7 4 6 5 5 7 5 6 7 12 16 7 7 17 19 20 22 20 21 23 23 24 24 22 21 21 21 22
8 8 10 9 8 7 5 4 3 3 3 1 1 1 1 3 3 5 9 3 6 4 2 1 2 1 2 2 2 1 1 2 1 1 3 4 5 8 6 4 4 5 5 11 14 5 4 12 11 11 14 13 13 15 11 8 9 7 5 8 9 7 10 8 6 9 8 7 7 14 19 9 4 14 17 18 23 23 22 23 24 25 25 23 23 22 22 23
9 9 10 11 10 8 7 5 4 4 3 2 1 1 1 3 4 9 9 1 5 4 2 0 2 2 3 6 5 2 2 3 1 1 4 2 3 6 5 3 3 7 8 9 14 11 5 8 11 12 14 13 13 13 10 9 9 7 5 7 8 8 11 10 9 10 8 7 8 14 21 12 3 11 17 17 20 23 22 24 26 26 25 24 24 23 23 24
10 10 11 12 12 10 9 7 6 5 4 3 2 2 1 3 7 11 4 3 1 1 2 2 1 3 4 5 6 4 2 4 2 3 4 3 5 4 5 7 3 6 10 10 13 14 11 12 12 12 14 13 13 11 8 9 8 8 8 8 8 7 8 10 10 9 6 4 7 12 20 15 5 9 16 14 12 15 19 23 26 27 27 27 26 24 23 24
10 11 12 13 14 13 11 9 7 6 6 4 2 1 2 7 11 8 2 1 5 2 1 3 1 2 3 4 4 1 3 4 3 5 6 5 7 5 5 8 6 6 9 9 10 12 13 14 11 11 12 13 12 12 11 11 12 11 9 9 9 6 5 5 5 5 6 4 6 13 17 13 6 8 13 13 12 12 13 15 17 22 27 28 27 25 24 24
10 11 12 13 14 15 13 10 8 7 6 5 3 1 4 10 8 1 1 2 3 1 1 3 1 2 4 5 5 2 3 2 1 5 6 5 7 6 5 6 7 7 8 7 5 7 9 13 12 11 12 13 14 15 13 11 14 14 11 11 10 7 5 3 3 4 6 5 5 10 13 9 6 9 11 13 13 11 11 11 13 17 22 26 27 26 25 25
10 10 12 13 15 16 15 12 9 8 7 6 4 4 8 11 6 2 5 4 0 1 3 3 4 4 5 5 3 3 5 2 0 3 5 6 5 6 7 5 4 7 7 7 8 10 7 8 11 12 11 12 15 17 14 10 11 14 12 11 12 11 5 0 2 4 4 5 10 9 7 8 11 12 8 10 11 9 9 9 12 16 18 20 25 27 27 26
10 10 12 13 14 16 15 14 11 9 8 7 5 8 12 11 6 4 5 2 1 3 3 3 5 7 7 3 1 4 6 2 1 4 6 7 5 4 3 3 2 4 7 7 6 9 11 4 5 8 6 7 13 16 14 11 11 13 12 11 13 13 9 4 5 8 5 3 8 7 0 2 9 12 6 4 6 6 6 5 8 14 17 19 24 28 29 28
11 10 11 12 14 16 16 16 13 11 10 7 8 13 12 8 4 2 2 2 2 3 4 6 6 8 9 7 4 3 4 2 3 7 7 4 3 1 1 2 1 2 5 8 6 5 9 5 4 6 7 7 11 14 14 14 12 11 13 14 12 10 11 9 6 7 5 2 6 6 1 2 6 7 3 2 2 3 4 5 5 11 15 19 23 26 29 32
10 10 10 12 13 15 17 17 14 12 11 9 12 14 9 5 5 4 3 5 4 4 7 8 6 6 8 7 7 6 6 4 4 7 7 3 3 1 1 3 2 2 5 7 7 4 7 8 4 7 12 11 11 11 14 15 11 9 11 12 9 8 10 9 5 7 7 4 4 4 2 2 4 3 3 1 2 2 3 4 3 8 13 15 21 26 30 33
10 9 10 12 12 14 17 18 16 14 11 10 15 15 10 7 6 5 4 4 5 5 8 8 3 4 8 6 5 7 6 6 4 5 5 5 5 4 2 4 3 3 4 4 6 4 5 10 5 4 10 10 10 10 13 15 13 11 10 10 10 9 9 11 9 6 5 4 2 5 3 5 1 2 3 4 4 3 3 4 4 6 10 11 16 24 28 28
9 7 9 11 11 13 17 19 17 15 13 13 15 14 13 11 6 4 5 5 5 6 8 8 4 4 7 6 0 6 7 7 5 6 5 4 5 4 3 6 4 3 4 4 7 6 6 10 7 4 8 8 8 12 15 14 14 13 12 11 13 12 11 12 12 8 3 4 1 8 4 4 2 1 2 4 4 3 3 5 7 8 9 10 11 17 22 24
6 2 9 13 10 12 16 19 19 17 15 17 15 11 9 10 8 7 7 6 7 8 7 4 4 6 7 5 7 6 6 5 6 6 5 6 5 3 3 6 5 4 5 5 8 8 8 9 8 5 6 9 11 13 14 14 13 15 15 15 15 14 12 11 12 12 7 5 4 4 4 3 4 2 1 1 3 1 4 5 7 8 9 10 11 14 19 23
3 2 12 17 11 11 15 18 20 19 17 17 16 11 8 9 8 7 8 7 7 8 6 5 6 7 5 5 8 6 4 6 7 7 5 7 7 5 5 5 6 6 7 7 8 8 7 8 10 8 7 9 11 8 7 11 13 14 14 15 16 16 14 10 10 13 11 9 9 3 3 4 6 4 1 2 3 0 4 6 6 9 10 11 12 13 16 20
0 2 15 18 12 11 14 17 18 18 18 18 15 12 12 13 10 8 9 9 8 8 7 7 8 8 7 7 6 4 7 9 7 7 7 6 5 3 4 3 4 5 7 9 8 7 7 9 11 10 7 8 10 8 6 9 11 14 15 15 15 15 15 14 11 12 13 12 12 8 3 5 5 6 4 3 3 1 4 6 7 9 9 11 14 13 14 18
3 6 17 20 15 12 13 15 17 18 19 17 13 11 11 12 12 10 10 10 9 9 9 7 8 9 9 7 5 5 9 10 7 6 6 5 5 4 2 3 4 5 7 9 6 5 8 10 10 10 9 9 12 12 10 11 11 13 15 14 13 13 15 16 12 10 12 12 11 9 4 5 2 5 4 2 1 1 3 5 5 7 9 10 13 12 13 17
9 9 13 16 15 13 14 15 16 17 18 17 15 14 12 11 12 12 10 10 10 9 8 8 9 9 7 6 7 7 8 9 8 8 8 7 6 6 6 5 5 6 6 6 4 5 7 8 7 7 8 10 13 11 9 10 12 12 11 11 13 11 12 15 12 10 12 12 10 8 1 4 3 1 1 2 1 2 3 4 4 5 8 9 11 11 13 15
8 8 9 13 14 14 16 15 14 14 15 18 19 17 15 14 14 14 13 12 11 10 9 8 8 8 7 7 9 8 8 9 9 8 7 7 5 4 5 6 6 7 7 6 6 8 10 9 8 8 7 7 7 5 5 8 12 11 7 6 10 11 12 14 13 10 10 12 11 4 3 6 4 4 4 2 2 2 2 3 3 4 5 6 8 8 8 11
5 6 7 11 12 13 16 16 16 15 12 14 17 18 17 17 15 14 15 14 12 11 11 8 6 8 8 8 10 11 10 11 12 8 7 9 9 6 5 6 6 6 7 7 7 8 11 12 10 11 11 9 7 6 6 7 10 10 6 6 10 12 13 13 13 12 10 10 10 3 4 5 4 4 5 4 3 4 3 3 4 4 3 2 4 5 5 7
3 5 7 10 11 12 14 15 16 17 14 11 13 15 17 18 15 12 14 15 13 13 13 10 8 8 9 8 10 11 10 11 12 11 9 11 10 6 5 6 8 8 7 8 8 8 11 12 9 9 11 12 10 7 6 9 10 10 9 11 11 12 15 16 15 13 10 11 10 5 4 6 6 5 4 4 6 8 5 5 5 4 3 1 2 4 4 5
4 6 9 12 14 10 11 13 14 16 16 13 13 12 13 16 16 13 12 13 13 13 14 13 11 10 10 8 8 10 10 10 11 11 11 11 10 9 9 8 9 10 9 8 7 8 10 9 6 6 8 9 10 8 8 10 11 9 8 10 10 12 14 17 16 11 9 11 10 8 9 10 10 8 5 6 10 11 7 7 6 5 4 2 2 3 6 6
8 9 9 13 16 13 12 13 13 15 15 13 14 14 13 15 17 15 13 12 13 14 14 14 12 11 11 10 9 10 10 10 11 11 11 11 11 11 11 9 9 8 8 9 8 8 9 7 3 3 6 7 9 11 9 10 11 11 10 9 8 8 9 11 10 9 10 10 9 9 11 11 11 10 8 11 14 11 8 8 8 7 7 6 5 5 7 8
10 11 11 14 16 16 16 16 14 14 15 14 16 16 15 16 16 16 15 14 14 14 15 14 12 10 10 10 9 11 12 11 10 9 8 11 12 11 11 12 10 8 6 8 8 7 8 7 4 3 5 7 10 13 11 10 11 10 10 11 9 6 5 4 3 6 10 9 8 11 13 12 11 10 11 14 14 12 11 10 10 9 9 8 7 6 7 8
11 11 13 15 14 13 14 15 14 15 16 16 16 16 16 17 17 16 16 15 15 14 14 14 13 11 9 9 9 11 11 10 10 9 7 10 12 11 9 9 10 9 8 8 8 7 9 8 6 5 8 10 10 12 11 12 12 10 11 13 11 7 5 2 2 4 8 10 9 11 14 14 13 12 14 15 14 14 13 12 11 11 9 8 8 8 8 9
12 11 12 14 14 12 12 13 15 17 17 17 16 15 16 16 16 16 16 15 15 15 14 12 13 12 11 10 10 11 10 9 10 9 7 8 11 11 9 8 8 11 11 9 8 9 10 10 9 8 9 9 11 14 13 13 14 13 13 12 8 4 2 1 0 1 3 8 10 12 13 13 13 14 16 16 15 15 14 13 13 12 11 10 9 9 10 11
Wind_Direction
26 25 27 32 34 29 7 275 250 251 259 263 266 262 256 252 248 245 242 242 244 245 245 244 244 242 240 240 239 233 226 222 220 218 219 218 216 217 208 202 205 203 195 161 118 103 104 95 83 64 57 31 12 5 310 7 49 34 24 150 242 154 129 131 149 148 147 144 141 138 131 135 134 133 129 120 128 126 115 118 121 121 131 150 158 147 144 153
25 24 23 24 26 28 32 23 312 259 256 261 267 268 266 261 254 250 246 243 242 242 243 243 242 240 238 237 237 235 231 227 226 223 221 218 216 217 213 208 206 203 199 184 148 127 121 108 93 57 45 30 310 305 313 347 18 33 36 100 175 150 122 125 142 140 150 143 137 136 128 131 131 127 124 121 125 119 120 125 125 133 143 154 156 145 150 153
25 26 25 25 22 21 27 30 27 337 273 264 263 268 271 269 266 260 252 247 243 241 241 240 240 239 235 233 234 234 232 231 233 230 222 217 216 217 216 210 208 206 202 197 175 144 132 156 183 72 26 321 283 301 319 334 336 19 35 47 144 141 128 138 139 139 154 143 136 137 131 133 127 118 116 121 123 123 132 133 134 142 144 152 154 147 148 143
27 28 30 29 25 21 22 25 28 16 333 281 264 267 268 272 276 270 263 254 246 242 240 239 238 236 234 231 229 232 233 234 238 234 224 220 217 217 218 212 211 209 206 205 187 162 140 161 182 124 249 280 294 305 311 320 333 24 29 21 96 142 141 154 147 143 147 140 140 137 132 132 125 117 119 127 129 133 139 137 144 146 145 149 146 144 142 136
29 29 30 29 28 25 20 20 22 23 8 317 279 267 266 273 277 281 281 265 253 247 242 240 238 233 232 227 224 226 216 223 239 232 223 224 219 218 220 215 214 211 209 203 184 173 147 150 157 115 271 279 289 301 302 306 330 15 15 1 278 169 157 160 155 146 144 147 144 133 133 138 131 124 126 132 132 139 143 142 151 148 143 141 138 141 136 133
28 28 27 24 24 22 21 18 16 17 13 354 311 278 270 270 274 283 284 281 272 254 244 241 238 234 230 222 220 211 178 212 238 230 221 224 220 219 219 216 215 212 209 197 178 173 161 156 159 256 284 287 289 296 293 298 313 324 348 351 277 192 173 168 164 157 153 157 140 127 141 149 137 128 129 138 137 141 143 144 152 148 139 137 136 135 133 134
23 21 17 14 13 12 14 12 8 9 5 4 344 300 282 270 271 276 279 289 281 266 252 242 236 235 226 213 211 199 186 224 236 229 224 223 220 220 216 216 214 210 209 193 176 172 170 174 202 251 273 282 286 290 293 300 297 307 343 312 285 195 186 177 169 166 161 159 137 130 157 153 137 133 133 144 145 140 139 145 152 147 138 137 134 135 140 137
15 13 8 360 356 354 357 359 360 1 355 353 349 337 313 278 272 268 275 282 276 296 258 233 234 228 209 200 187 173 206 234 231 227 226 220 221 220 214 215 212 208 207 193 178 172 176 197 225 251 276 285 282 288 296 299 271 281 314 298 293 242 213 187 176 174 168 165 147 143 163 150 138 142 135 138 139 138 142 148 151 145 139 137 138 142 144 132
13 10 4 353 344 337 334 336 338 347 347 344 341 342 336 298 285 270 273 275 273 286 249 110 171 188 157 170 145 145 234 244 233 230 227 219 220 217 211 212 211 207 203 195 185 175 177 212 248 259 264 273 282 284 294 310 282 275 291 294 286 262 243 206 189 181 173 171 157 149 156 157 152 143 130 131 136 144 147 148 149 146 140 139 143 148 139 130
12 7 2 355 345 333 323 317 314 326 334 332 333 335 337 337 321 275 273 273 273 282 289 78 142 124 128 140 121 170 247 251 238 232 229 223 220 215 210 206 207 206 200 198 194 182 179 205 229 241 252 268 283 277 284 319 290 281 281 277 278 260 244 226 202 186 179 173 162 154 157 165 157 138 132 138 143 149 148 147 150 147 144 142 147 148 138 136
8 3 2 357 350 343 331 314 302 307 317 324 331 330 334 340 347 321 281 269 270 272 290 20 117 110 137 135 115 240 247 246 236 231 230 227 220 216 212 205 203 202 198 200 202 195 191 202 210 206 251 272 277 281 281 277 275 294 296 271 304 281 237 226 205 189 183 174 170 164 163 169 157 148 153 144 146 153 151 150 151 150 149 149 152 150 142 145
8 6 7 4 1 358 349 332 313 315 325 334 338 337 340 344 355 356 334 280 275 266 283 13 106 120 143 146 159 233 238 234 228 225 227 229 223 219 214 208 204 196 194 196 204 210 210 214 209 187 244 266 281 282 273 279 284 307 311 274 302 297 244 222 201 190 187 178 176 168 166 171 158 159 162 147 151 157 152 151 152 154 155 154 155 153 144 145
11 12 12 11 13 13 17 15 1 5 8 1 1 354 348 352 1 3 22 42 322 284 302 48 82 103 119 155 226 235 228 226 222 220 222 226 225 222 217 213 208 199 193 193 204 216 220 225 218 204 233 257 281 271 264 285 299 311 305 273 276 291 250 210 195 189 187 181 178 170 171 179 165 159 159 151 154 157 153 153 154 157 158 159 157 152 147 143
12 13 13 16 26 37 46 45 43 48 43 38 26 15 13 14 18 20 40 56 72 78 55 67 66 91 113 160 278 265 243 233 225 217 214 220 223 226 223 216 212 204 195 197 209 219 220 224 224 225 249 260 258 270 276 273 283 300 297 268 256 274 218 187 187 187 185 180 180 177 179 185 171 162 160 154 155 156 157 157 157 161 162 163 161 155 154 148
14 17 21 31 46 59 63 63 64 62 60 58 45 43 41 33 40 41 51 62 72 78 74 76 75 74 70 335 316 311 290 270 240 223 210 209 210 224 230 221 213 206 197 203 213 219 223 226 227 233 270 273 258 269 280 255 266 282 278 278 260 252 189 177 184 185 183 179 181 183 185 183 172 168 164 155 157 158 158 161 160 163 164 165 166 160 157 155
21 29 40 54 66 72 74 74 74 73 71 67 59 57 52 51 58 56 67 71 72 75 74 73 73 78 82 319 329 353 341 324 261 235 209 202 198 208 224 223 215 206 198 204 212 216 225 228 228 231 246 266 265 267 269 262 268 274 284 308 283 235 186 173 179 185 182 177 181 187 190 183 169 168 169 161 162 163 159 164 164 164 166 167 169 164 160 162
31 42 56 72 79 82 84 82 80 79 75 71 68 66 61 59 58 67 76 75 72 67 73 80 67 70 91 303 2 29 336 298 283 245 210 202 198 197 203 215 214 203 196 205 213 216 226 229 230 241 245 254 262 264 266 273 282 279 292 310 288 243 205 176 177 185 181 177 183 185 184 188 178 170 173 169 167 167 162 165 167 168 169 168 170 169 168 167
42 54 68 82 89 91 90 85 81 77 74 74 72 67 67 62 52 62 86 89 72 50 51 78 55 43 84 357 48 160 253 287 303 247 210 200 201 201 189 192 199 195 192 206 219 219 227 232 232 247 252 248 251 257 263 280 302 299 297 315 303 242 219 193 183 184 181 177 182 184 178 180 179 174 175 175 170 168 169 169 168 173 174 171 170 174 173 167
51 67 81 92 98 96 90 84 77 70 69 70 69 69 70 59 40 34 91 101 70 36 29 77 47 41 124 82 106 209 282 339 5 358 224 175 191 199 187 183 176 175 183 212 227 220 221 229 229 239 245 241 244 255 266 279 297 302 293 292 276 198 186 191 185 184 184 178 181 189 183 164 166 174 176 177 177 170 172 174 172 176 178 174 171 177 179 171
62 83 96 101 102 97 90 82 72 65 60 57 60 65 61 52 33 23 70 75 54 121 151 121 102 118 141 94 89 231 9 31 49 10 6 115 118 155 177 180 171 180 194 213 227 215 214 227 229 234 242 240 244 257 275 287 296 302 303 295 261 191 173 180 181 187 186 179 182 189 188 170 166 180 180 176 182 180 178 178 177 180 179 176 176 181 183 175
75 98 108 110 105 99 91 82 74 66 60 53 55 63 59 72 102 86 84 45 357 136 144 162 149 158 187 182 227 220 17 31 79 177 116 101 92 134 190 197 191 213 214 211 219 210 217 233 234 237 241 237 243 255 265 283 290 291 294 297 291 139 155 174 181 192 188 182 188 186 183 186 181 186 182 174 181 185 185 184 183 184 181 178 179 185 186 176
91 110 119 117 109 104 93 84 77 68 65 59 58 65 67 95 107 98 102 92 8 76 98 73 96 114 105 78 80 124 127 132 163 203 191 119 118 153 222 232 209 223 218 209 214 208 222 239 240 239 237 232 249 261 259 267 281 294 293 297 323 76 101 167 188 197 192 188 192 187 186 197 194 188 177 172 183 190 190 191 190 186 184 183 180 186 188 179
116 125 133 126 117 110 94 83 77 72 69 63 61 63 69 89 93 96 101 104 34 57 75 59 76 68 3 20 59 97 104 220 182 240 252 132 145 187 228 230 222 230 217 210 219 219 230 243 237 232 229 235 249 257 265 269 279 304 306 338 19 52 81 166 192 195 194 195 198 192 195 208 204 196 189 183 182 189 193 198 202 194 187 186 183 188 190 186
157 164 151 140 136 117 99 88 80 77 67 63 67 64 71 87 96 105 93 97 138 62 78 106 97 128 26 35 95 84 85 223 167 239 253 124 161 244 234 224 233 234 222 221 230 234 242 249 225 219 226 242 250 251 258 265 272 295 300 351 8 326 333 159 191 185 190 204 214 200 203 217 212 206 209 199 182 188 194 198 207 201 191 188 187 192 192 191
203 200 179 173 160 132 120 100 81 74 62 58 61 56 75 94 107 117 92 117 153 68 41 84 84 119 31 68 82 76 176 172 105 220 226 141 192 248 249 230 228 229 237 231 230 238 246 250 234 229 241 247 252 252 249 251 257 278 298 337 343 309 305 4 176 169 176 209 217 205 208 221 215 211 217 213 195 195 198 199 206 204 198 191 187 196 194 192
228 215 204 205 187 179 167 112 94 72 52 34 49 61 86 96 119 122 38 201 158 72 40 94 83 250 349 64 80 64 171 163 108 220 210 185 199 227 238 222 223 239 254 230 228 242 245 251 240 237 250 252 248 251 250 247 249 251 247 267 325 316 296 233 176 176 182 211 214 207 207 210 214 216 221 220 211 205 203 205 207 206 206 198 189 195 196 193
242 224 219 219 207 206 187 140 132 82 53 332 25 103 111 104 174 308 299 244 146 80 96 110 75 125 94 113 123 13 152 176 227 294 315 189 171 202 231 206 231 242 228 225 237 237 234 246 255 235 245 248 243 246 245 240 250 252 233 247 296 312 277 231 192 195 195 193 191 203 206 194 209 217 218 221 222 214 208 210 208 207 211 207 195 195 198 195
252 234 228 224 219 214 199 186 168 109 135 234 253 224 229 275 273 295 282 254 97 83 146 160 272 124 113 128 138 330 285 215 243 259 279 237 156 177 249 264 256 245 212 228 234 216 224 237 245 238 240 242 241 244 238 228 252 266 250 253 268 276 285 287 237 237 226 187 179 191 196 195 219 217 215 221 224 216 211 213 210 208 211 210 202 197 198 198
260 242 231 226 226 221 215 211 192 159 160 191 227 257 286 268 283 283 268 277 85 110 138 157 251 148 140 210 143 92 218 207 292 243 233 266 177 181 231 256 244 247 233 235 240 260 250 228 231 240 240 240 240 242 240 237 253 256 253 261 258 270 287 287 258 248 226 202 212 196 188 185 217 215 211 216 220 215 211 213 212 211 211 210 206 199 197 200
264 248 233 229 228 223 223 219 210 197 172 181 186 81 322 242 261 268 256 103 90 130 132 196 242 194 211 231 207 186 232 209 305 256 204 250 197 186 220 224 228 248 244 243 245 256 264 228 233 240 236 238 246 248 239 235 248 242 247 263 254 269 288 286 270 250 215 204 235 207 192 189 188 206 204 206 218 218 211 212 215 214 209 207 207 201 198 202
267 253 237 230 227 223 221 216 215 207 184 181 129 90 338 256 259 268 270 88 135 187 186 193 186 217 245 259 226 193 221 215 219 229 202 195 206 215 229 217 235 244 231 238 237 235 241 239 241 239 232 234 244 251 234 224 239 238 243 254 247 266 294 294 278 254 231 234 235 202 192 199 209 202 197 188 196 208 210 214 217 215 209 205 205 201 199 202
272 256 242 232 226 223 222 218 214 208 195 193 171 123 303 273 257 260 9 194 223 213 204 188 158 247 244 263 239 187 230 209 192 230 231 219 211 214 224 226 254 255 240 245 222 215 230 232 234 236 229 225 228 232 222 221 232 229 234 242 240 255 275 282 282 262 259 252 201 185 187 204 217 186 182 174 169 183 198 207 211 212 210 207 206 201 197 201
278 260 247 235 227 225 224 221 217 212 201 196 200 204 272 273 267 247 40 249 204 121 252 233 252 250 242 235 201 187 246 200 186 237 226 235 231 221 231 263 287 270 269 279 238 225 221 205 211 225 219 215 218 221 217 216 221 217 220 230 233 242 252 272 313 290 264 260 246 204 182 181 180 164 169 178 181 184 188 190 193 199 204 207 208 201 195 198
283 265 250 238 230 226 222 221 219 216 207 194 206 241 255 264 282 293 261 254 217 251 222 231 246 226 243 253 190 216 247 212 208 238 205 209 225 224 220 228 264 259 275 293 283 282 266 198 202 215 210 210 214 220 228 226 219 218 222 230 234 237 232 229 312 292 282 287 287 262 189 166 169 161 165 177 175 177 183 186 188 191 195 201 205 202 197 196
286 270 252 241 234 226 220 220 218 218 213 201 225 251 253 260 267 255 238 182 145 245 212 224 252 231 219 226 332 259 246 227 184 217 221 218 220 237 212 138 135 254 270 284 294 290 284 265 191 203 210 214 217 223 233 237 231 224 218 226 236 230 218 225 278 296 313 307 281 273 314 114 154 150 157 184 161 151 150 155 186 194 192 193 200 203 201 195
288 275 254 243 235 225 219 217 216 221 213 203 240 250 254 265 265 242 237 235 243 255 248 233 230 240 221 186 178 212 223 267 238 213 219 239 250 276 48 68 55 315 288 293 306 289 278 280 166 207 247 236 227 227 222 230 240 221 207 222 236 223 216 230 273 289 283 289 283 277 308 104 144 147 178 212 143 125 119 115 164 187 187 193 196 198 203 200
288 277 256 245 235 225 219 214 214 220 211 213 243 253 266 267 244 252 274 261 242 239 265 248 212 246 256 206 183 184 207 227 231 230 220 210 227 153 89 258 255 322 319 310 308 298 286 283 225 234 254 233 224 235 227 228 234 215 210 223 224 209 213 220 248 275 261 243 269 294 293 202 155 163 253 286 62 30 68 83 133 179 185 197 196 194 203 204
288 279 261 249 238 226 217 213 214 214 210 228 245 252 269 261 235 242 246 240 239 235 258 263 235 245 267 255 171 157 206 214 190 242 232 172 185 179 220 243 221 275 294 306 297 282 283 285 263 241 257 232 212 233 236 228 223 222 228 223 209 211 216 211 223 262 276 255 201 78 16 305 41 118 270 316 342 2 64 89 103 151 176 192 200 201 204 203
291 290 268 254 239 226 218 212 211 210 214 233 244 248 251 244 233 235 228 223 225 224 244 265 277 234 240 279 356 164 220 240 210 233 234 180 178 167 219 248 233 260 269 281 287 281 279 280 269 253 263 244 224 233 232 222 216 222 233 227 220 233 238 223 226 235 245 278 266 96 82 300 330 113 262 309 316 342 76 121 122 133 164 174 183 195 197 197
294 276 256 258 243 226 220 211 208 212 221 231 240 247 237 228 230 230 223 218 216 229 256 258 234 232 228 259 275 237 228 252 251 244 216 187 198 184 208 246 251 268 278 276 277 274 264 262 265 272 268 243 232 236 234 225 219 219 224 225 223 229 236 228 226 228 225 264 267 121 113 240 252 243 231 315 294 337 87 112 128 139 158 164 165 175 183 190
292 183 247 262 258 229 218 211 210 215 226 232 238 247 236 219 220 219 216 223 227 235 261 254 241 267 273 241 249 243 222 241 252 253 224 198 221 224 190 213 246 268 282 278 272 267 257 260 270 281 283 249 233 236 232 219 224 228 228 231 227 222 227 226 217 220 225 247 262 251 129 192 232 255 299 344 317 274 111 106 123 142 151 159 166 174 180 186
208 219 253 260 263 238 215 212 216 220 226 232 236 241 236 225 222 225 223 227 233 233 241 252 253 264 268 255 256 239 230 238 233 236 240 222 221 198 148 188 248 267 278 276 278 282 274 272 271 273 285 259 248 274 268 225 235 243 236 236 236 227 226 232 230 224 229 244 261 265 192 171 231 275 303 339 332 283 136 124 130 146 157 162 164 172 183 189
208 252 262 257 251 235 215 216 224 225 228 234 236 232 231 228 226 228 227 224 228 228 229 240 244 243 241 247 262 245 240 244 229 230 255 241 224 230 241 265 260 258 275 278 287 297 275 264 264 277 291 267 255 267 260 239 242 244 236 235 240 235 230 238 247 243 238 240 251 261 223 153 211 295 324 15 358 241 164 154 152 150 154 158 160 170 183 192
234 239 261 260 248 226 213 218 226 226 227 234 237 233 230 229 226 225 226 227 225 223 229 237 239 242 237 230 242 244 245 247 231 234 259 252 232 239 250 254 249 256 276 277 285 306 291 271 261 271 277 257 246 244 240 238 235 236 240 234 236 243 239 240 245 241 236 233 248 283 309 154 190 310 54 89 125 211 187 167 161 143 141 151 164 178 187 193
262 248 246 252 249 228 213 220 234 239 239 236 233 231 232 231 228 228 230 233 230 225 236 242 232 233 236 230 237 243 250 254 245 240 248 242 233 250 249 239 246 264 272 263 273 294 290 281 273 266 263 256 248 249 260 250 235 238 253 246 247 250 235 231 232 224 225 228 238 276 101 169 192 139 144 157 141 201 212 173 165 152 141 150 160 170 185 196
270 264 247 242 246 238 225 227 238 244 249 243 231 228 233 233 230 229 229 232 230 225 235 244 232 229 234 232 237 240 238 241 246 250 248 242 241 241 233 232 245 260 265 268 280 283 277 278 273 261 260 265 277 300 291 252 238 245 261 275 263 239 221 229 232 222 224 229 229 201 128 186 199 156 165 170 178 214 211 162 171 176 168 150 130 125 148 192
246 265 259 233 225 231 233 233 237 239 245 249 238 231 231 231 229 224 224 228 228 225 230 235 232 230 228 227 239 242 230 227 240 249 250 248 245 233 232 249 254 254 267 282 282 277 277 280 273 256 253 251 254 273 266 242 242 245 250 264 257 225 221 235 233 222 224 232 227 199 174 197 194 194 195 169 200 227 211 165 166 179 191 178 106 107 124 172
248 271 266 233 213 215 237 237 232 234 239 243 242 238 232 229 226 220 219 225 226 223 225 226 227 235 237 233 239 241 228 222 234 242 243 247 251 250 247 244 240 251 273 275 262 275 281 272 264 262 256 247 245 253 252 242 236 227 231 248 236 215 221 228 227 227 230 231 223 187 169 174 181 203 222 212 225 231 210 182 177 183 197 186 158 138 126 135
243 251 255 239 227 226 244 245 232 229 235 240 242 240 235 232 229 223 221 223 221 220 223 224 224 231 239 238 239 242 234 227 235 240 238 241 250 255 252 243 227 234 261 256 242 272 279 256 239 256 250 247 238 234 241 246 240 232 229 232 225 212 211 212 221 233 227 229 224 188 172 173 183 198 213 224 230 221 194 193 199 204 214 219 212 183 142 135
254 241 236 241 238 234 242 249 244 239 242 244 242 238 235 235 233 229 225 222 218 214 218 226 231 231 232 230 233 238 235 234 245 248 235 233 240 244 252 261 246 217 235 256 249 266 272 261 273 259 242 250 231 213 217 236 246 248 239 232 233 232 220 206 205 209 210 219 216 192 190 194 192 197 214 220 217 203 194 199 205 212 223 228 219 188 154 144
269 253 244 248 248 243 245 247 245 246 246 241 238 237 236 234 234 234 231 225 222 218 214 221 231 234 233 230 230 231 229 231 242 249 242 236 240 241 244 258 253 237 251 267 252 252 266 274 283 255 247 262 242 212 214 226 227 234 239 235 233 229 225 207 109 163 201 209 194 179 192 205 208 219 232 224 206 198 198 199 203 211 219 224 212 185 167 156
272 266 259 255 250 245 249 250 244 243 244 239 236 237 237 234 231 232 230 224 223 227 225 223 228 231 230 225 222 225 228 228 232 240 245 243 249 255 252 252 253 251 260 265 250 247 260 275 283 266 261 266 231 206 209 222 222 218 220 225 226 232 253 248 15 50 197 197 188 184 198 213 221 233 237 224 206 198 197 198 206 211 211 212 206 189 178 169
Height
3160 3160 3159 3159 3158 3158 3158 3157 3157 3157 3157 3157 3156 3156 3156 3156 3156 3157 3157 3158 3158 3159 3160 3160 3161 3162 3163 3164 3165 3165 3166 3166 3167 3167 3168 3168 3169 3169 3170 3170 3170 3171 3171 3171 3171 3171 3171 3171 3171 3171 3171 3171 3173 3173 3173 3172 3171 3171 3170 3171 3171 3170 3170 3171 3173 3174 3174 3175 3175 3176 3177 3177 3177 3178 3179 3180 3182 3183 3185 3187 3188 3188 3189 3189 3188 3189 3189 3190
3161 3160 3160 3159 3159 3158 3158 3157 3157 3157 3157 3157 3156 3156 3156 3156 3156 3156 3157 3157 3157 3158 3159 3159 3160 3161 3162 3163 3164 3165 3165 3166 3166 3167 3167 3168 3168 3169 3169 3170 3170 3171 3171 3171 3171 3171 3171 3172 3172 3172 3172 3173 3176 3175 3173 3172 3171 3172 3171 3170 3170 3171 3171 3172 3173 3174 3175 3175 3176 3176 3177 3178 3178 3179 3179 3181 3183 3184 3186 3187 3188 3188 3188 3188 3188 3189 3190 3191
3161 3161 3160 3160 3159 3158 3158 3158 3157 3157 3157 3157 3156 3156 3156 3155 3156 3156 3156 3156 3157 3157 3158 3159 3159 3160 3161 3162 3163 3164 3165 3166 3166 3166 3166 3167 3168 3168 3169 3169 3170 3170 3171 3171 3171 3172 3172 3173 3173 3173 3174 3175 3176 3175 3174 3173 3172 3172 3171 3170 3171 3171 3172 3173 3173 3174 3175 3176 3177 3177 3177 3178 3179 3180 3181 3182 3184 3186 3187 3188 3188 3188 3188 3189 3189 3190 3190 3191
3162 3161 3161 3160 3159 3159 3158 3158 3157 3157 3157 3156 3156 3156 3156 3155 3155 3155 3156 3156 3156 3157 3157 3158 3158 3159 3160 3161 3163 3164 3165 3166 3165 3165 3166 3167 3167 3168 3168 3169 3170 3170 3171 3171 3171 3172 3172 3173 3173 3173 3175 3176 3177 3176 3176 3174 3172 3172 3171 3171 3171 3171 3172 3172 3173 3174 3176 3177 3178 3178 3178 3178 3179 3180 3182 3183 3185 3187 3188 3188 3189 3188 3188 3189 3190 3190 3191 3192
3162 3162 3161 3161 3160 3159 3159 3158 3158 3157 3157 3156 3156 3156 3155 3155 3155 3155 3155 3155 3156 3156 3157 3157 3158 3159 3159 3160 3162 3163 3165 3166 3163 3164 3166 3166 3167 3167 3168 3169 3169 3170 3171 3171 3172 3172 3172 3173 3174 3174 3175 3177 3177 3177 3176 3174 3172 3172 3171 3172 3171 3171 3172 3172 3173 3174 3176 3177 3178 3178 3179 3179 3180 3181 3182 3184 3186 3187 3188 3189 3189 3189 3189 3190 3190 3191 3192 3192
3163 3162 3162 3161 3160 3160 3159 3158 3158 3157 3157 3156 3156 3156 3156 3155 3155 3155 3155 3155 3155 3156 3156 3157 3157 3158 3159 3160 3161 3162 3165 3164 3161 3163 3165 3165 3166 3167 3167 3168 3169 3170 3170 3171 3172 3172 3173 3173 3174 3175 3177 3178 3178 3177 3176 3174 3173 3171 3171 3171 3170 3170 3172 3172 3173 3174 3176 3177 3177 3179 3180 3180 3180 3181 3182 3184 3186 3187 3188 3189 3189 3189 3190 3190 3191 3192 3192 3193
3163 3163 3162 3161 3160 3160 3159 3159 3158 3157 3157 3156 3156 3156 3156 3155 3155 3155 3155 3155 3155 3155 3156 3156 3157 3157 3158 3160 3160 3162 3163 3161 3160 3163 3164 3165 3166 3166 3167 3168 3169 3170 3170 3171 3172 3172 3173 3174 3175 3177 3178 3178 3178 3177 3175 3174 3173 3172 3170 3170 3170 3171 3172 3172 3173 3174 3176 3177 3177 3180 3181 3180 3180 3181 3182 3183 3185 3186 3188 3189 3189 3189 3190 3191 3192 3193 3194 3194
3164 3163 3162 3161 3161 3160 3159 3159 3158 3158 3157 3157 3156 3156 3156 3156 3155 3155 3155 3155 3155 3155 3156 3156 3157 3157 3158 3159 3160 3162 3162 3160 3160 3163 3163 3164 3165 3166 3167 3168 3168 3170 3170 3171 3172 3173 3173 3175 3176 3177 3178 3178 3177 3177 3175 3174 3173 3172 3170 3170 3170 3171 3172 3172 3172 3173 3175 3176 3177 3179 3180 3180 3181 3182 3182 3184 3185 3187 3188 3189 3189 3190 3191 3192 3193 3194 3194 3194
3164 3163 3162 3161 3161 3160 3160 3159 3158 3158 3157 3157 3156 3156 3156 3156 3156 3155 3155 3155 3155 3156 3156 3156 3157 3157 3158 3159 3160 3163 3161 3159 3160 3162 3163 3164 3164 3165 3166 3167 3168 3169 3170 3171 3171 3172 3174 3176 3177 3177 3177 3177 3176 3176 3174 3174 3172 3171 3171 3170 3170 3169 3170 3171 3172 3172 3174 3175 3176 3178 3180 3180 3181 3182 3182 3184 3186 3188 3188 3189 3190 3191 3192 3193 3194 3194 3195 3195
3164 3163 3162 3161 3160 3160 3159 3159 3159 3158 3158 3157 3157 3156 3156 3156 3156 3156 3155 3155 3155 3156 3156 3156 3157 3157 3158 3159 3161 3162 3160 3159 3160 3161 3162 3163 3164 3165 3166 3167 3168 3169 3170 3171 3171 3172 3174 3176 3176 3175 3175 3175 3175 3174 3173 3173 3172 3170 3171 3170 3169 3168 3169 3170 3171 3172 3173 3175 3176 3178 3179 3180 3181 3182 3183 3185 3187 3188 3189 3190 3191 3192 3193 3194 3195 3195 3195 3196
3164 3163 3162 3161 3160 3160 3159 3159 3159 3158 3158 3158 3157 3157 3156 3156 3156 3156 3156 3156 3156 3156 3156 3157 3157 3158 3158 3159 3161 3161 3159 3159 3160 3160 3162 3163 3163 3164 3165 3166 3167 3169 3170 3171 3172 3172 3172 3173 3173 3173 3175 3175 3175 3174 3172 3172 3171 3169 3169 3169 3168 3168 3168 3169 3170 3172 3173 3174 3176 3177 3179 3180 3181 3183 3184 3185 3187 3188 3189 3190 3192 3193 3194 3195 3195 3195 3196 3197
3164 3163 3162 3161 3160 3160 3159 3159 3159 3158 3158 3158 3158 3157 3157 3157 3156 3156 3156 3156 3156 3156 3156 3157 3157 3158 3158 3159 3159 3159 3159 3159 3160 3160 3161 3162 3163 3164 3165 3166 3167 3168 3170 3171 3172 3171 3170 3171 3172 3173 3174 3174 3174 3174 3172 3171 3170 3169 3169 3169 3168 3167 3167 3168 3169 3171 3173 3174 3176 3177 3179 3180 3181 3183 3184 3185 3187 3188 3189 3191 3192 3193 3194 3195 3195 3195 3196 3197
3164 3163 3162 3161 3160 3160 3160 3159 3159 3159 3159 3158 3158 3158 3157 3157 3157 3156 3156 3156 3156 3157 3157 3157 3158 3158 3159 3159 3159 3158 3159 3159 3160 3161 3161 3162 3163 3164 3165 3166 3166 3168 3169 3169 3170 3169 3170 3171 3172 3172 3173 3173 3174 3173 3171 3170 3169 3169 3169 3168 3167 3167 3166 3167 3168 3170 3173 3175 3176 3177 3179 3180 3182 3183 3184 3186 3187 3188 3189 3191 3193 3194 3194 3195 3195 3196 3196 3197
3164 3163 3162 3161 3161 3160 3160 3160 3160 3159 3159 3159 3159 3158 3158 3158 3157 3157 3157 3157 3157 3157 3157 3158 3158 3159 3159 3160 3159 3158 3159 3159 3160 3161 3161 3162 3163 3163 3164 3165 3166 3167 3168 3168 3168 3169 3169 3170 3171 3172 3172 3172 3172 3171 3171 3171 3169 3168 3169 3167 3166 3167 3167 3167 3169 3170 3173 3175 3176 3178 3180 3181 3182 3183 3184 3186 3188 3189 3190 3191 3193 3194 3195 3195 3196 3196 3197 3197
3164 3163 3163 3162 3161 3161 3161 3161 3160 3160 3160 3160 3159 3159 3159 3158 3158 3158 3157 3158 3158 3158 3158 3159 3159 3159 3160 3160 3159 3159 3159 3159 3160 3161 3161 3162 3163 3164 3164 3165 3166 3167 3168 3168 3168 3169 3169 3170 3171 3172 3173 3172 3171 3171 3172 3171 3169 3168 3168 3167 3166 3167 3168 3168 3169 3171 3173 3175 3177 3179 3180 3181 3182 3183 3185 3186 3188 3190 3191 3192 3193 3194 3195 3195 3196 3196 3197 3198
3165 3164 3163 3163 3162 3162 3162 3162 3161 3161 3161 3161 3161 3160 3160 3159 3159 3159 3159 3159 3159 3159 3159 3160 3160 3160 3163 3162 3160 3159 3160 3160 3160 3160 3161 3162 3163 3164 3164 3165 3166 3167 3168 3168 3168 3169 3169 3170 3171 3172 3173 3172 3171 3172 3172 3170 3170 3170 3169 3169 3168 3168 3168 3168 3169 3171 3173 3174 3176 3178 3179 3180 3182 3184 3185 3186 3188 3189 3191 3192 3193 3195 3196 3196 3196 3197 3197 3198
3166 3165 3164 3164 3163 3163 3163 3163 3163 3163 3162 3162 3162 3161 3161 3160 3160 3160 3160 3160 3160 3161 3161 3161 3161 3162 3163 3163 3161 3161 3161 3160 3160 3160 3161 3162 3163 3163 3164 3165 3165 3166 3168 3168 3168 3168 3169 3170 3171 3172 3172 3172 3172 3173 3171 3170 3170 3170 3170 3169 3168 3168 3168 3167 3168 3169 3172 3174 3176 3178 3179 3180 3182 3183 3184 3186 3187 3189 3190 3192 3194 3195 3196 3196 3197 3197 3198 3198
3167 3166 3166 3165 3164 3164 3164 3164 3164 3164 3163 3163 3163 3162 3162 3161 3161 3161 3161 3161 3161 3162 3163 3163 3162 3163 3163 3163 3163 3163 3162 3160 3160 3160 3161 3161 3162 3163 3164 3165 3166 3166 3167 3168 3168 3169 3169 3170 3172 3173 3172 3172 3172 3172 3172 3170 3170 3170 3170 3169 3168 3168 3168 3168 3168 3168 3171 3174 3176 3178 3179 3181 3181 3182 3184 3185 3186 3188 3190 3191 3193 3194 3195 3196 3197 3197 3198 3198
3168 3168 3167 3166 3166 3166 3166 3166 3165 3165 3165 3164 3164 3163 3163 3162 3162 3162 3162 3162 3162 3164 3165 3164 3163 3165 3164 3163 3164 3163 3161 3160 3160 3160 3161 3161 3162 3163 3164 3165 3166 3166 3168 3169 3169 3169 3170 3171 3172 3172 3171 3171 3172 3172 3171 3171 3171 3170 3170 3169 3168 3168 3168 3168 3168 3170 3171 3173 3176 3177 3179 3180 3180 3181 3182 3183 3185 3187 3189 3191 3192 3194 3194 3196 3197 3198 3198 3198
3169 3169 3168 3168 3167 3167 3167 3167 3166 3166 3166 3165 3165 3164 3164 3163 3164 3164 3163 3163 3163 3164 3165 3164 3165 3166 3165 3164 3163 3162 3161 3160 3161 3161 3161 3162 3162 3163 3165 3166 3166 3167 3169 3170 3170 3170 3171 3171 3171 3170 3170 3170 3171 3172 3171 3171 3170 3170 3171 3170 3169 3169 3169 3169 3169 3170 3171 3173 3175 3176 3177 3179 3180 3181 3181 3182 3184 3185 3188 3189 3191 3192 3193 3195 3197 3197 3197 3198
3171 3170 3169 3169 3168 3168 3168 3168 3168 3167 3167 3167 3166 3165 3165 3165 3166 3166 3164 3165 3165 3163 3164 3164 3164 3165 3165 3164 3163 3162 3163 3163 3163 3163 3162 3162 3163 3165 3166 3166 3168 3168 3169 3170 3171 3170 3171 3170 3169 3169 3169 3169 3170 3172 3172 3172 3171 3171 3172 3171 3171 3170 3169 3169 3170 3170 3171 3173 3173 3174 3176 3178 3178 3179 3178 3180 3183 3184 3186 3188 3190 3191 3193 3195 3196 3197 3197 3198
3171 3171 3171 3170 3169 3169 3169 3169 3168 3168 3168 3168 3167 3166 3167 3166 3166 3165 3164 3167 3167 3164 3164 3164 3164 3165 3163 3163 3163 3162 3164 3166 3165 3164 3163 3163 3164 3166 3168 3168 3168 3169 3169 3170 3171 3170 3170 3169 3168 3169 3168 3168 3170 3172 3172 3172 3171 3171 3171 3171 3171 3171 3170 3170 3170 3170 3170 3171 3171 3172 3175 3176 3177 3177 3177 3179 3182 3185 3186 3188 3189 3190 3192 3194 3195 3196 3196 3197
3172 3172 3171 3171 3170 3170 3170 3169 3169 3169 3169 3168 3168 3167 3168 3167 3167 3166 3165 3167 3168 3165 3165 3165 3166 3167 3165 3164 3163 3161 3165 3168 3166 3165 3163 3163 3166 3167 3168 3168 3168 3169 3169 3169 3169 3169 3168 3167 3166 3167 3167 3168 3171 3171 3171 3172 3171 3170 3170 3171 3171 3172 3171 3170 3170 3170 3170 3170 3169 3170 3173 3174 3175 3176 3177 3178 3181 3184 3187 3187 3188 3189 3191 3193 3194 3196 3196 3196
3172 3172 3172 3172 3171 3171 3170 3170 3170 3170 3169 3169 3169 3169 3169 3168 3167 3167 3165 3166 3169 3168 3167 3166 3166 3168 3167 3165 3164 3163 3166 3168 3167 3166 3163 3164 3168 3168 3167 3168 3168 3168 3168 3169 3169 3168 3166 3165 3165 3166 3167 3169 3170 3171 3171 3171 3171 3171 3170 3170 3172 3171 3170 3170 3170 3169 3170 3170 3169 3170 3172 3173 3174 3175 3177 3178 3179 3182 3185 3186 3187 3188 3189 3191 3194 3195 3195 3196
3173 3172 3172 3172 3172 3171 3171 3171 3170 3170 3170 3170 3170 3170 3169 3168 3168 3168 3166 3166 3169 3168 3167 3166 3166 3167 3167 3165 3164 3164 3166 3166 3166 3166 3164 3164 3167 3168 3167 3168 3167 3168 3168 3168 3168 3167 3166 3165 3165 3167 3168 3169 3170 3169 3170 3170 3170 3171 3171 3171 3172 3171 3169 3169 3169 3169 3170 3171 3169 3170 3172 3172 3173 3174 3176 3178 3179 3181 3183 3185 3185 3187 3188 3190 3192 3193 3194 3195
3172 3172 3172 3172 3172 3172 3171 3171 3171 3171 3171 3171 3171 3171 3170 3169 3168 3168 3167 3166 3167 3168 3167 3167 3167 3167 3166 3165 3165 3165 3166 3166 3166 3166 3164 3164 3165 3166 3166 3167 3167 3167 3167 3167 3167 3166 3165 3164 3164 3166 3168 3168 3169 3168 3168 3168 3169 3170 3171 3171 3172 3171 3169 3169 3169 3169 3170 3170 3169 3169 3170 3171 3172 3173 3176 3178 3179 3180 3181 3183 3184 3185 3187 3188 3190 3192 3193 3194
3172 3172 3172 3172 3172 3172 3171 3171 3171 3171 3172 3172 3171 3171 3170 3170 3169 3169 3168 3165 3165 3167 3168 3168 3168 3167 3167 3166 3166 3166 3166 3166 3165 3164 3164 3164 3164 3165 3166 3166 3167 3166 3166 3167 3166 3164 3164 3164 3164 3166 3167 3168 3167 3167 3167 3167 3168 3168 3168 3170 3171 3171 3170 3168 3167 3168 3169 3169 3169 3169 3170 3170 3171 3173 3176 3177 3177 3178 3179 3181 3183 3184 3185 3186 3188 3190 3191 3192
3171 3171 3172 3171 3171 3171 3171 3172 3171 3172 3172 3172 3171 3171 3171 3171 3169 3169 3168 3164 3163 3167 3169 3168 3168 3166 3167 3166 3166 3166 3166 3166 3165 3164 3165 3164 3164 3166 3166 3166 3167 3165 3166 3166 3164 3162 3163 3164 3165 3166 3167 3166 3166 3166 3165 3166 3168 3167 3166 3169 3170 3170 3169 3168 3167 3166 3168 3168 3168 3169 3170 3170 3170 3171 3174 3176 3175 3176 3177 3178 3180 3182 3183 3184 3186 3189 3190 3191
3170 3170 3171 3171 3171 3171 3171 3171 3171 3171 3172 3172 3171 3171 3171 3171 3169 3169 3167 3164 3164 3167 3168 3168 3167 3166 3167 3166 3166 3167 3167 3166 3166 3165 3165 3164 3163 3164 3165 3165 3166 3166 3166 3165 3162 3162 3162 3163 3164 3165 3165 3165 3164 3165 3164 3166 3168 3166 3166 3168 3169 3169 3168 3168 3167 3166 3167 3168 3167 3168 3169 3169 3170 3171 3172 3173 3172 3173 3175 3177 3178 3180 3181 3183 3184 3187 3189 3190
3169 3169 3169 3170 3170 3170 3171 3171 3171 3171 3171 3172 3171 3171 3171 3170 3170 3169 3164 3163 3165 3166 3167 3167 3167 3167 3167 3166 3166 3167 3167 3166 3166 3165 3165 3165 3164 3164 3164 3164 3165 3165 3165 3164 3162 3162 3162 3162 3163 3163 3163 3164 3164 3163 3163 3165 3166 3166 3167 3168 3169 3169 3168 3167 3167 3166 3167 3168 3167 3167 3167 3168 3169 3169 3169 3170 3169 3170 3173 3175 3176 3178 3179 3181 3183 3185 3188 3189
3168 3168 3168 3168 3169 3169 3170 3170 3171 3171 3171 3171 3171 3172 3171 3170 3170 3166 3161 3162 3166 3166 3166 3167 3167 3167 3166 3166 3165 3165 3166 3166 3166 3165 3165 3165 3165 3165 3164 3164 3164 3164 3163 3162 3161 3161 3161 3161 3161 3161 3161 3163 3163 3163 3163 3165 3165 3166 3167 3168 3168 3168 3167 3167 3167 3166 3166 3166 3165 3165 3167 3167 3167 3166 3166 3167 3167 3169 3170 3171 3173 3175 3177 3179 3181 3184 3186 3188
3167 3167 3167 3167 3168 3168 3169 3169 3170 3170 3171 3171 3172 3171 3171 3170 3168 3164 3162 3164 3165 3165 3165 3166 3166 3167 3166 3166 3165 3165 3165 3165 3165 3165 3164 3164 3164 3164 3164 3163 3162 3161 3160 3157 3156 3157 3158 3159 3159 3160 3160 3161 3163 3163 3163 3164 3165 3165 3166 3167 3167 3167 3167 3166 3165 3165 3164 3165 3165 3165 3167 3168 3166 3165 3164 3164 3166 3167 3168 3169 3171 3172 3174 3177 3179 3181 3185 3187
3165 3165 3165 3166 3166 3167 3168 3169 3169 3170 3170 3171 3171 3171 3172 3170 3164 3162 3164 3165 3164 3164 3165 3166 3166 3167 3166 3165 3164 3165 3164 3164 3164 3164 3164 3164 3163 3163 3163 3162 3161 3161 3158 3156 3154 3153 3153 3155 3158 3159 3158 3159 3161 3161 3161 3162 3163 3163 3164 3166 3165 3165 3166 3167 3168 3167 3164 3163 3165 3164 3165 3167 3166 3165 3164 3164 3165 3166 3167 3168 3169 3170 3172 3174 3176 3179 3183 3186
3164 3164 3164 3164 3165 3166 3167 3168 3168 3169 3170 3170 3171 3171 3171 3168 3164 3163 3165 3164 3164 3165 3165 3166 3166 3166 3165 3164 3163 3164 3163 3163 3164 3164 3163 3163 3162 3161 3161 3161 3161 3161 3160 3157 3155 3152 3149 3151 3155 3156 3156 3157 3159 3159 3159 3160 3161 3162 3163 3164 3164 3164 3165 3168 3170 3168 3164 3164 3166 3164 3164 3165 3165 3164 3164 3163 3163 3163 3164 3165 3166 3168 3170 3172 3175 3177 3180 3184
3162 3162 3162 3163 3163 3164 3166 3167 3167 3168 3169 3170 3171 3171 3169 3166 3163 3163 3163 3163 3165 3165 3165 3165 3165 3164 3163 3163 3163 3164 3162 3161 3163 3163 3162 3162 3161 3159 3158 3160 3161 3161 3160 3159 3157 3155 3151 3150 3153 3155 3156 3157 3158 3158 3159 3159 3159 3160 3162 3163 3163 3163 3165 3166 3167 3166 3165 3166 3165 3162 3164 3164 3163 3163 3164 3162 3161 3161 3161 3163 3164 3166 3168 3171 3173 3175 3177 3181
3161 3161 3161 3161 3162 3163 3164 3165 3166 3167 3168 3169 3170 3169 3166 3164 3163 3163 3163 3163 3165 3165 3165 3164 3163 3162 3160 3160 3163 3164 3162 3161 3162 3161 3161 3161 3160 3159 3159 3160 3161 3161 3161 3159 3157 3157 3155 3152 3154 3156 3157 3157 3158 3158 3158 3159 3157 3157 3160 3162 3162 3163 3165 3166 3167 3166 3164 3165 3164 3162 3164 3166 3164 3164 3164 3162 3160 3159 3159 3162 3163 3163 3165 3168 3171 3173 3174 3177
3160 3160 3160 3160 3160 3161 3163 3164 3165 3166 3167 3169 3169 3166 3164 3163 3163 3164 3164 3164 3164 3165 3164 3162 3161 3160 3157 3156 3159 3162 3162 3162 3161 3159 3159 3160 3160 3160 3161 3161 3161 3162 3162 3160 3159 3159 3158 3155 3155 3157 3156 3156 3157 3157 3157 3157 3157 3157 3159 3161 3162 3163 3163 3165 3168 3166 3161 3162 3164 3164 3165 3167 3166 3165 3164 3162 3161 3159 3160 3161 3162 3162 3163 3165 3168 3170 3171 3173
3158 3158 3158 3158 3159 3160 3161 3163 3164 3165 3166 3168 3167 3165 3164 3164 3163 3163 3164 3164 3164 3164 3163 3161 3159 3160 3158 3155 3156 3160 3161 3160 3160 3159 3158 3159 3160 3161 3162 3161 3161 3162 3163 3162 3161 3161 3160 3157 3155 3156 3156 3154 3156 3157 3156 3156 3156 3158 3159 3160 3161 3161 3161 3163 3165 3165 3164 3162 3161 3164 3167 3169 3167 3165 3164 3163 3162 3160 3160 3161 3161 3162 3162 3163 3165 3167 3169 3172
3157 3158 3157 3157 3158 3158 3160 3161 3163 3164 3165 3166 3165 3164 3163 3163 3162 3162 3163 3163 3164 3164 3162 3161 3159 3159 3159 3157 3157 3159 3159 3158 3159 3158 3158 3159 3159 3160 3161 3161 3160 3161 3162 3163 3162 3161 3161 3159 3156 3157 3156 3154 3156 3156 3154 3154 3156 3157 3159 3159 3159 3159 3158 3160 3160 3162 3166 3164 3159 3163 3170 3170 3167 3166 3164 3164 3163 3161 3160 3159 3160 3161 3162 3162 3163 3165 3168 3171
3156 3158 3157 3156 3156 3157 3158 3160 3161 3162 3163 3163 3163 3162 3161 3161 3162 3162 3162 3162 3163 3162 3161 3161 3161 3160 3159 3159 3158 3157 3157 3158 3158 3157 3157 3159 3159 3159 3161 3162 3161 3161 3162 3163 3162 3161 3161 3160 3157 3157 3156 3156 3156 3155 3154 3154 3156 3157 3157 3157 3158 3158 3157 3158 3159 3159 3163 3162 3159 3162 3168 3169 3167 3167 3165 3164 3163 3161 3160 3160 3160 3161 3162 3162 3163 3165 3168 3170
3155 3158 3156 3154 3155 3156 3157 3158 3159 3161 3162 3161 3161 3160 3160 3160 3161 3161 3161 3161 3161 3161 3161 3161 3161 3160 3158 3158 3158 3157 3157 3159 3158 3157 3157 3158 3158 3159 3160 3162 3162 3162 3162 3162 3161 3160 3159 3159 3158 3157 3156 3155 3154 3154 3154 3155 3156 3156 3156 3156 3155 3156 3156 3156 3156 3158 3160 3161 3157 3157 3162 3167 3167 3166 3165 3164 3163 3162 3161 3161 3161 3161 3161 3162 3163 3165 3167 3170
3155 3157 3155 3153 3154 3155 3155 3157 3158 3159 3160 3159 3159 3159 3158 3158 3160 3161 3161 3160 3160 3161 3161 3161 3160 3160 3159 3159 3159 3158 3158 3158 3157 3157 3157 3157 3158 3158 3159 3160 3161 3162 3161 3160 3160 3159 3159 3159 3157 3156 3155 3154 3153 3154 3154 3155 3156 3156 3155 3155 3154 3154 3155 3155 3154 3156 3158 3159 3157 3155 3160 3165 3166 3165 3165 3164 3163 3162 3161 3160 3160 3160 3161 3162 3162 3164 3166 3169
3154 3155 3153 3151 3153 3153 3154 3156 3157 3157 3157 3157 3158 3158 3156 3157 3159 3159 3160 3160 3160 3160 3160 3160 3160 3160 3159 3159 3159 3159 3158 3156 3156 3157 3157 3157 3158 3158 3158 3160 3161 3162 3161 3159 3159 3159 3158 3157 3156 3155 3156 3155 3153 3153 3154 3154 3155 3155 3153 3154 3154 3154 3155 3155 3155 3156 3157 3157 3157 3156 3159 3164 3165 3165 3165 3164 3163 3162 3160 3160 3159 3160 3162 3162 3162 3163 3165 3167
3151 3153 3152 3150 3150 3151 3153 3154 3155 3155 3155 3156 3156 3156 3156 3156 3157 3158 3158 3159 3159 3159 3159 3159 3159 3158 3158 3159 3159 3159 3158 3156 3156 3157 3158 3158 3158 3157 3159 3161 3160 3160 3160 3159 3159 3159 3157 3156 3156 3156 3158 3157 3153 3152 3153 3154 3154 3154 3152 3152 3153 3154 3155 3156 3156 3157 3157 3157 3158 3157 3159 3164 3165 3165 3165 3164 3163 3162 3161 3160 3160 3160 3162 3162 3161 3162 3163 3165
3149 3150 3151 3149 3148 3149 3150 3152 3153 3153 3153 3154 3154 3154 3155 3155 3155 3156 3157 3157 3157 3158 3158 3158 3158 3158 3158 3159 3159 3159 3158 3157 3157 3157 3158 3158 3157 3157 3159 3160 3160 3160 3160 3159 3159 3159 3157 3156 3155 3155 3156 3155 3152 3152 3154 3155 3154 3154 3153 3153 3154 3155 3155 3156 3156 3156 3156 3157 3158 3159 3162 3165 3165 3165 3165 3163 3162 3162 3161 3161 3161 3160 3160 3160 3160 3161 3163 3164
3148 3149 3150 3149 3148 3148 3149 3150 3150 3150 3151 3151 3151 3152 3153 3153 3153 3154 3154 3155 3156 3156 3157 3157 3157 3157 3157 3158 3158 3158 3158 3158 3156 3156 3157 3157 3157 3157 3158 3159 3159 3159 3158 3158 3158 3158 3157 3156 3155 3154 3153 3152 3151 3153 3155 3156 3155 3154 3154 3155 3155 3155 3155 3156 3155 3155 3156 3156 3157 3159 3161 3163 3164 3164 3163 3162 3162 3161 3161 3161 3161 3161 3160 3159 3159 3161 3163 3163
3147 3149 3149 3148 3147 3147 3148 3149 3149 3149 3150 3150 3149 3150 3151 3151 3152 3152 3152 3153 3154 3155 3155 3156 3156 3156 3156 3157 3157 3156 3156 3157 3156 3156 3157 3156 3156 3156 3157 3158 3159 3158 3157 3157 3158 3157 3156 3155 3154 3154 3153 3153 3153 3154 3156 3156 3156 3155 3155 3156 3156 3155 3154 3155 3155 3155 3156 3156 3156 3158 3160 3162 3163 3163 3161 3162 3161 3160 3160 3160 3160 3160 3160 3160 3160 3161 3162 3163
3147 3147 3146 3145 3145 3146 3147 3148 3148 3148 3148 3149 3148 3148 3149 3149 3150 3151 3150 3151 3153 3153 3154 3154 3155 3155 3155 3155 3156 3155 3155 3156 3156 3156 3156 3156 3155 3155 3156 3157 3157 3156 3156 3157 3157 3156 3156 3154 3154 3154 3154 3153 3153 3154 3155 3155 3156 3156 3156 3155 3155 3155 3154 3154 3154 3155 3156 3156 3156 3158 3160 3161 3162 3162 3161 3161 3160 3159 3159 3160 3160 3160 3160 3160 3160 3160 3161 3162
3143 3144 3144 3143 3143 3144 3145 3144 3144 3145 3146 3146 3147 3147 3147 3148 3148 3149 3149 3150 3151 3152 3152 3152 3153 3154 3154 3154 3155 3154 3154 3155 3155 3155 3155 3155 3155 3155 3154 3154 3155 3155 3155 3155 3155 3155 3155 3153 3153 3154 3154 3152 3152 3153 3153 3154 3155 3156 3156 3155 3155 3154 3153 3154 3154 3153 3155 3155 3155 3157 3158 3158 3159 3161 3161 3159 3158 3158 3159 3159 3159 3159 3159 3160 3160 3160 3161 3162
3140 3140 3140 3140 3140 3141 3141 3142 3143 3144 3144 3144 3144 3145 3146 3146 3146 3147 3148 3148 3149 3150 3151 3151 3151 3152 3153 3153 3154 3154 3153 3154 3154 3154 3154 3155 3155 3155 3155 3154 3153 3153 3154 3154 3154 3153 3154 3153 3152 3152 3153 3152 3152 3152 3153 3154 3155 3156 3156 3155 3155 3154 3153 3153 3153 3152 3153 3155 3154 3155 3156 3156 3158 3160 3159 3158 3157 3157 3158 3158 3159 3159 3159 3159 3160 3161 3162 3162
3138 3138 3138 3137 3138 3139 3140 3141 3142 3142 3142 3142 3143 3143 3144 3145 3145 3146 3146 3147 3148 3148 3149 3150 3151 3151 3151 3152 3153 3153 3152 3153 3154 3154 3154 3154 3154 3154 3154 3154 3153 3153 3152 3153 3153 3153 3153 3152 3152 3152 3152 3151 3152 3152 3153 3155 3156 3156 3155 3154 3153 3153 3152 3151 3152 3152 3153 3153 3153 3154 3156 3156 3158 3159 3157 3156 3156 3156 3157 3158 3158 3158 3159 3160 3160 3161 3162 3163
3135 3135 3136 3135 3136 3136 3137 3139 3140 3140 3140 3140 3141 3141 3142 3142 3143 3144 3144 3145 3146 3147 3147 3149 3150 3150 3150 3151 3152 3152 3151 3152 3154 3154 3154 3154 3153 3153 3153 3153 3153 3153 3152 3152 3152 3152 3152 3152 3151 3152 3151 3150 3151 3152 3152 3154 3153 3152 3153 3153 3152 3152 3151 3151 3151 3152 3152 3151 3152 3153 3155 3156 3157 3157 3155 3155 3155 3155 3156 3157 3158 3158 3159 3160 3161 3161 3162 3163